• Join FlightAware (Why Join?)
  • Login
  • US Flag 
08:36PM EDT


 

Airport Tracker/Info


-or-


 

Live Flight TrackerFlight Track Log ✈ SWA2596 ✈ 13-Apr-2013 ✈ KDEN - KAUS

Flight Track Log - Related Links

Times and Time Zones

All times are in EDT time to prevent confusion due to time zone crossing. See the SWA2596 flight status page for this flight to view local times or setup timezone preferences in your user account.

Time Position Orientation Groundspeed Altitude Reporting Facility
EDT Latitude Longitude Course Direction KTS MPH feet Rate Location/Type
09:13PM 39.8833 -104.6000 118° Southeast 186 214 6,800  Level Denver TRACON
09:13PM 39.8500 -104.5167 117° Southeast 255 293 8,600 2,160 Climbing Denver TRACON
09:14PM 39.8333 -104.4333 105° East 301 346 10,700 1,920 Climbing Denver TRACON
09:15PM 39.8111 -104.4069 138° Southeast 309 356 11,000 2,280 Climbing Denver Center
09:16PM 39.7186 -104.3989 176° South 339 390 13,800 2,700 Climbing Denver Center
09:17PM 39.6289 -104.4444 201° Southwest 350 403 16,600 3,000 Climbing Denver Center
09:18PM 39.5367 -104.4911 201° Southwest 360 414 20,000 2,340 Climbing Denver Center
09:19PM 39.4447 -104.5361 201° Southwest 358 412 21,500 1,620 Climbing Denver Center
09:20PM 39.3333 -104.5925 201° Southwest 397 457 23,400 2,100 Climbing Denver Center
09:21PM 39.2275 -104.5889 178° South 411 473 25,900 1,320 Climbing Denver Center
09:22PM 39.1144 -104.5681 172° South 405 466 26,100 900 Climbing Denver Center
09:23PM 38.9972 -104.5478 172° South 417 480 27,800 1,680 Climbing Denver Center
09:24PM 38.8858 -104.4903 158° South 429 494 29,600 1,380 Climbing Denver Center
09:25PM 38.7747 -104.4244 155° Southeast 435 501 30,700 660 Climbing Denver Center
09:26PM 38.6553 -104.3592 157° South 458 527 31,000 120 Climbing Denver Center
09:27PM 38.5103 -104.2789 157° South 481 554 31,000  Level Denver Center
09:28PM 38.3892 -104.2100 156° South 474 545 31,000  Level Denver Center
09:29PM 38.2647 -104.1444 158° South 472 543 31,000  Level Denver Center
09:30PM 38.1506 -104.0714 153° Southeast 478 550 31,000  Level Denver Center
09:31PM 38.0436 -103.9842 147° Southeast 476 548 31,000  Level Denver Center
09:32PM 37.9194 -103.8831 147° Southeast 471 542 31,000  Level Denver Center
09:33PM 37.8125 -103.7983 148° Southeast 470 541 31,000  Level Denver Center
09:34PM 37.7056 -103.7131 148° Southeast 469 540 31,000  Level Denver Center
09:35PM 37.5797 -103.6122 148° Southeast 473 544 31,000  Level Denver Center
09:36PM 37.4711 -103.5250 147° Southeast 478 550 31,000  Level Denver Center
09:37PM 37.3444 -103.4253 148° Southeast 478 550 31,000  Level Denver Center
09:38PM 37.2728 -103.3686 148° Southeast 477 549 31,000  Level Albuquerque Center
09:39PM 37.1631 -103.2853 149° Southeast 478 550 31,000  Level Albuquerque Center
09:40PM 37.0369 -103.1872 148° Southeast 477 549 31,000  Level Albuquerque Center
09:41PM 36.9286 -103.1028 148° Southeast 478 550 31,000 -360 Level Albuquerque Center
09:42PM 36.8031 -103.0047 148° Southeast 476 548 30,300 -1,200 Descending Albuquerque Center
09:43PM 36.6956 -102.9228 149° Southeast 473 544 28,600 -1,620 Descending Albuquerque Center
09:44PM 36.5906 -102.8417 148° Southeast 468 539 27,100 -1,320 Descending Albuquerque Center
09:45PM 36.4814 -102.7567 148° Southeast 464 534 25,900 -1,080 Descending Albuquerque Center
09:46PM 36.3681 -102.6694 148° Southeast 475 547 25,000 -480 Descending Albuquerque Center
09:47PM 36.2347 -102.5697 149° Southeast 469 540 25,000  Level Albuquerque Center
09:48PM 36.1269 -102.4881 149° Southeast 459 528 25,000  Level Albuquerque Center
09:49PM 36.0189 -102.4083 149° Southeast 454 522 25,000  Level Albuquerque Center
09:50PM 35.9083 -102.3267 149° Southeast 460 529 25,000  Level Albuquerque Center
09:51PM 35.8003 -102.2447 148° Southeast 458 527 25,000  Level Albuquerque Center
09:52PM 35.6919 -102.1656 149° Southeast 455 524 25,000  Level Albuquerque Center
09:53PM 35.5833 -102.0858 149° Southeast 454 522 25,000  Level Albuquerque Center
09:54PM 35.4758 -102.0061 149° Southeast 454 522 25,000  Level Albuquerque Center
09:55PM 35.3683 -101.9275 149° Southeast 454 522 25,000  Level Albuquerque Center
09:56PM 35.2389 -101.8325 149° Southeast 457 526 25,000  Level Albuquerque Center
09:57PM 35.1322 -101.7558 150° Southeast 458 527 25,000  Level Albuquerque Center
09:58PM 35.0258 -101.6778 149° Southeast 455 524 25,000  Level Albuquerque Center
09:59PM 34.9178 -101.5989 149° Southeast 455 524 25,000  Level Albuquerque Center
10:00PM 34.8094 -101.5217 150° Southeast 455 524 25,000  Level Albuquerque Center
10:01PM 34.7014 -101.4436 149° Southeast 454 522 25,000  Level Albuquerque Center
10:02PM 34.5925 -101.3669 150° Southeast 453 521 25,000  Level Albuquerque Center
10:03PM 34.4639 -101.2725 149° Southeast 452 520 25,000  Level Albuquerque Center
10:04PM 34.3544 -101.1969 150° Southeast 454 522 25,000  Level Albuquerque Center
10:05PM 34.2469 -101.1206 150° Southeast 449 517 25,000  Level Albuquerque Center
10:06PM 34.1381 -101.0436 150° Southeast 452 520 25,000  Level Albuquerque Center
10:07PM 34.0292 -100.9672 150° Southeast 453 521 25,000  Level Albuquerque Center
10:08PM 33.9206 -100.8911 150° Southeast 452 520 25,000  Level Albuquerque Center
10:10PM 33.8222 -100.8211 149° Southeast 452 520 25,000  Level Albuquerque Center
10:11PM 33.7033 -100.7400 150° Southeast 452 520 25,000  Level Albuquerque Center
10:12PM 33.5825 -100.6572 150° Southeast 457 526 25,000  Level Fort Worth Center
10:13PM 33.4636 -100.5731 149° Southeast 451 519 25,000  Level Fort Worth Center
10:14PM 33.3692 -100.5075 150° Southeast 451 519 25,000  Level Fort Worth Center
10:15PM 33.2603 -100.4317 150° Southeast 451 519 25,000 240 Level Fort Worth Center
10:16PM 33.1514 -100.3586 151° Southeast 451 519 25,500 1,200 Climbing Fort Worth Center
10:17PM 33.0406 -100.2831 150° Southeast 457 526 27,500 1,620 Climbing Fort Worth Center
10:18PM 32.9294 -100.2053 150° Southeast 457 526 28,800 480 Climbing Fort Worth Center
10:19PM 32.8103 -100.1250 150° Southeast 452 520 28,500 -900 Descending Fort Worth Center
10:20PM 32.7094 -100.0603 152° Southeast 446 513 27,000 -780 Descending Fort Worth Center
10:21PM 32.6022 -99.9878 150° Southeast 439 505 27,000  Level Fort Worth Center
10:22PM 32.4933 -99.9108 149° Southeast 434 499 27,000  Level Fort Worth Center
10:23PM 32.3842 -99.8367 150° Southeast 447 514 27,000  Level Fort Worth Center
10:24PM 32.2728 -99.7622 151° Southeast 452 520 27,000  Level Fort Worth Center
10:25PM 32.1614 -99.6858 150° Southeast 458 527 27,000  Level Fort Worth Center
10:26PM 32.0519 -99.6144 151° Southeast 458 527 27,000  Level Fort Worth Center
10:27PM 31.9406 -99.5383 150° Southeast 458 527 27,000  Level Fort Worth Center
10:29PM 31.7467 -99.4100 151° Southeast 457 526 27,000 -300 Level Houston Center
10:30PM 31.6178 -99.3250 151° Southeast 455 524 26,200 -960 Descending Houston Center
10:31PM 31.5100 -99.2533 150° Southeast 445 512 25,100 -600 Descending Houston Center
10:32PM 31.4039 -99.1847 151° Southeast 433 498 25,000 -60 Descending Houston Center
10:33PM 31.3014 -99.1169 151° Southeast 423 487 25,000  Level Houston Center
10:34PM 31.1986 -99.0483 150° Southeast 421 484 25,000  Level Houston Center
10:35PM 31.0967 -98.9822 151° Southeast 417 480 25,000  Level Houston Center
10:36PM 30.9933 -98.9150 151° Southeast 420 483 25,000  Level Houston Center
10:37PM 30.8908 -98.8492 151° Southeast 418 481 25,000 -600 Level Houston Center
10:38PM 30.7925 -98.7792 149° Southeast 415 478 23,900 -2,580 Descending Houston Center
10:39PM 30.7281 -98.6622 123° Southeast 424 488 19,800 -3,720 Descending Houston Center
10:40PM 30.6667 -98.5422 121° Southeast 428 493 16,500 -2,280 Descending Houston Center
10:41PM 30.6292 -98.4350 112° Southeast 377 434 15,300 -1,980 Descending Houston Center
10:42PM 30.5744 -98.3486 126° Southeast 338 389 12,600 -2,160 Descending Houston Center
10:43PM 30.5192 -98.2703 129° Southeast 318 366 11,000 -1,800 Descending Houston Center
10:44PM 30.4775 -98.1928 122° Southeast 290 334 9,000 -1,800 Descending Houston Center
10:45PM 30.4367 -98.1169 122° Southeast 278 320 7,400 -1,500 Descending Houston Center
10:46PM 30.4186 -98.0322 104° East 272 313 6,000 -720 Descending Houston Center
10:47PM 30.4031 -97.9469 102° East 269 310 6,000 -300 Level Houston Center
10:48PM 30.3861 -97.8603 103° East 272 313 5,400 -600 Descending Houston Center
10:49PM 30.3714 -97.7808 102° East 260 299 4,900 -900 Descending Houston Center
10:50PM 30.3594 -97.7136 102° East 225 259 3,700 -1,140 Descending Houston Center
10:51PM 30.3200 -97.6800 144° Southeast 204 235 2,700 -900 Descending Houston Center
10:52PM 30.2781 -97.6806 181° South 170 196 1,900 -780 Descending Houston Center
10:53PM 30.2458 -97.6803 180° South 136 157 1,200 -480 Descending Houston Center
10:54PM 30.2189 -97.6786 177° South 129 148 1,000 -240 Descending Houston Center
10:56PM 30.1945 -97.6699 221° Southwest  Level Estimated